User: anonymous   Login
Location: Buch
(50.1863°N, 11.0141°E)
Time: 18:00:08
(UTC+00:00)
Language:

STARLINK-43 - Orbit

View from above orbital plane
View from above orbital plane
View from above satellite
View from above satellite

Ground track
Ground track

The orbit data is extracted from the following two-line orbital elements,

1 44257C 19029Y   20100.51997310  .00010587  00000-0  34940-3 0  1009
2 44257  52.9970 119.3939 0001090  42.0684 142.4779 15.30854514    16
Epoch (UTC): 09 April 2020 12:28:45
Eccentricity: 0.0001090
inclination: 52.9970°
perigee height: 472 km
apogee height: 474 km
right ascension of ascending node: 119.3939°
argument of perigee: 42.0684°
revolutions per day: 15.30854514
mean anomaly at epoch: 142.4779°
orbit number at epoch: 1

The dashed part of the orbit path shows where the satellite is in the earth's shadow,  

DLR